Preview of NWS' New Version of Forecast
This preview is not operational and should not be used for support decisions.

Regional Weather Roundup (RWR)

Issued by National Weather Service (NWS)

                            
000
ASUS45 KABQ 210101
RWRNM 
NEW MEXICO REGIONAL WEATHER ROUNDUP
NATIONAL WEATHER SERVICE ALBUQUERQUE NM
600 PM MST WED FEB 20 2019

NOTE: "FAIR" MEANS FEW OR NO CLOUDS BELOW 12,000 FEET AGL WITH NO
       SIGNIFICANT WEATHER OR OBSTRUCTIONS TO VISION.

      THIS PRODUCT IS RELEASED AS TWO VERSIONS.  ONE VERSION NEAR
      THE TOP OF THE HOUR CONTAINING PRELIMINARY DATA FROM ALBUQUERQUE
      AND OTHER STATIONS.  A FINAL VERSION WITH ADDITIONAL DATA IS 
      ISSUED ABOUT 10 MINUTES AFTER THE HOUR.
 
NMZ501-503-504-510>518-210200-
NORTHWEST PLATEAU/NORTHCENTRAL MOUNTAINS
  
CITY           SKY/WX    TMP DP  RH WIND       PRES   REMARKS
FARMINGTON     FAIR      28  13  53 E12       29.73F WCI  18          
LOS ALAMOS     FAIR      26  11  52 S6        29.74R WCI  20          
SANTA FE       FAIR      28  10  46 W5        29.74F WCI  23          
TAOS           FAIR      22   9  57 CALM      29.75F                  
ANGEL FIRE       N/A     17   7  63 W10       29.70R WCI   5          

$$
NMZ402-403-502-505>509-210200-
WESTCENTRAL MOUNTAINS/SOUTHWEST MOUNTAINS
  
CITY           SKY/WX    TMP DP  RH WIND       PRES   REMARKS
GALLUP         FAIR      28  14  55 SW5       29.69F WCI  23          
GRANTS         MOCLDY    30  13  49 S6        29.74S WCI  24          
SILVER CITY    FAIR      38   8  28 NW9       29.80S WCI  32          

$$
NMZ407-409-411-412-210200-
SOUTHERN DESERTS
  
CITY           SKY/WX    TMP DP  RH WIND       PRES   REMARKS
DEMING         FAIR      47   3  16 W9        29.78S                  
LAS CRUCES     FAIR      49   5  16 SW8       29.80S                  
ALAMOGORDO     FAIR      45   3  18 S14       29.80R                  
T OR C         FAIR      48  -3  12 S18G26    29.71R                  

$$
NMZ519>523-210200-
CENTRAL VALLEYS/CENTRAL HIGHLANDS
  
CITY           SKY/WX    TMP DP  RH WIND       PRES   REMARKS
ALBUQUERQUE    FAIR      39  10  30 W3        29.75S                  
DOUBLE EAGLE   PTCLDY    34  12  40 VRB6      29.73F WCI  29          
CLINES CORNERS FAIR      27   8  44 W14       29.73S WCI  16          
BELEN          FAIR      39  10  30 E5        29.74F                  
SOCORRO        NOT AVBL                                               

$$
NMZ524>526-539-540-210200-
SOUTHCENTRAL MOUNTAINS
  
CITY           SKY/WX    TMP DP  RH WIND       PRES   REMARKS
RUIDOSO        NOT AVBL                                               

$$
NMZ527>531-210200-
NORTHEAST HIGHLANDS/NORTHEAST PLAINS
  
CITY           SKY/WX    TMP DP  RH WIND       PRES   REMARKS
LAS VEGAS      FAIR      27  10  49 SW18      29.66R WCI  14          
RATON          FAIR      28  10  46 W14       29.64R WCI  17          
CLAYTON        FAIR      30  16  56 E3        29.68R                  

$$
NMZ532>537-210200-
EASTCENTRAL PLAINS
  
CITY           SKY/WX    TMP DP  RH WIND       PRES   REMARKS
SANTA ROSA     FAIR      40   7  25 SW8       29.75R WCI  34          
TUCUMCARI      FAIR      43  10  26 W14       29.71R                  
CANNON AFB     FAIR      40   9  27 W7        29.78R                  
CLOVIS AIRPORT FAIR      39   8  27 W9        29.78R WCI  33          

$$
NMZ028-029-538-210200-
SOUTHEAST PLAINS
  
CITY           SKY/WX    TMP DP  RH WIND       PRES   REMARKS
ROSWELL        FAIR      53  -1  11 S15       29.71R                  
ARTESIA        FAIR      50   1  13 S18       29.77R                  
CARLSBAD       FAIR      51   5  15 S9        29.78R                  
HOBBS          CLEAR     48   1  14 S8        29.81R                  


$$